星链-34897 (STARLINK-34897)

导读

STARLINK-34710是美国太空探索技术公司(SpaceX)星链(Starlink)星座中的一颗卫星,于2025年8月28日由美国发射。星链项目旨在构建全球覆盖的太空互联网通信系统,该卫星入轨后将参与星座组网,为全球多地提供高速互联网接入服务,进一步扩充星链星座的卫星规模与服务覆盖能力。

Basic Information
目录编号:
65365
目录名称:
STARLINK-34710
国际标识:
2025-190Q
轨道中心:
EARTH
卫星名称:
星链-34897
卫星全名:
星链-34897 (STARLINK-34897)
卫星状态:
在轨 (已飞行373 天)
发射日期:
2025-08-28 UTC
国别 :
美国 (US)
星等 :
--
Orbit Information
数据来源 国际轨道数据
星历时间: 2026-09-05T01:26:37+0800
1天前
查看轨道信息
半长轴: 6840.829km
偏心率: 0.0001109
轨道倾角: 53.160°
近地点辐角 97.428°
升交点赤经 55.359°
平近点角 262.685°
近地点: 461.933km
远地点: 463.451km
周期: 93.848分钟
每日圈数: 15.34404
Detailed Information
固有亮度:
5
最大亮度:
2.5
卫星平台:
Starlink V1.0
覆盖范围:
全球
运营商:
太空探索技术公司
运营商所在国:
美国
制造商(研发单位):
太空探索技术公司
制造商所在国:
美国
使用方式:
暂无
Satellite Introduction
Starlink 计划是 SpaceX 推出的全球卫星互联网项目,通过发射低轨道卫星,为全球尤其是偏远地区提供高速、低延迟的互联网服务。自 2019 年起,Starlink 已部署数千颗卫星,旨在缩小全球数字鸿沟,推动互联网普及。该项目还为军事、航空等行业提供通信支持,带来广泛经济效益。
2D Orbit Map
3D Orbit Map
Orbit Altitude Analysis Chart
Orbit Inclination Analysis Chart
Orbit Comprehensive Analysis Chart
View Comprehensive Chart
Conjunction Data List
Event ID Objects TCA Miss Dist (km) Collision Risk Probability Collision Risk Index (CRI) Action
CDM_260906-134405-019906-536522
2026-09-06T
13:44:32+0000
2.848 km
极远距离
1.063107E-6 低风险 0.36
CDM_260907-051304-975706-536521
2026-09-07T
05:13:15+0000
2.459 km
极远距离
4.918812E-7 极低风险 0.29